FW1155 Weather Reports


Display with metric or nautical units.
time (UTC)temp
F
wind
direction
speed
MPH
gust
MPH
rain 1hr
in
rain 24hr
in
rain mn
in
humidity
%
barometer
mb
20181019003552 67 42 10.0 14.0 0.00 0.03 0.01 85 1021.1
20181019003052 67 48 10.0 16.0 0.00 0.03 0.01 85 1021.0
20181019002552 67 48 10.0 16.0 0.00 0.03 0.01 85 1021.0
20181019002052 67 34 11.0 17.0 0.00 0.03 0.01 85 1020.8
20181019001553 67 41 11.0 17.0 0.00 0.03 0.01 85 1020.7
20181019001052 67 38 11.0 15.0 0.00 0.03 0.01 85 1020.7
20181019000548 67 42 11.0 18.0 0.00 0.03 0.01 85 1020.6
20181019000048 68 29 12.0 18.0 0.00 0.03 0.01 85 1020.6
20181018235547 68 31 11.0 16.0 0.00 0.03 0.01 85 1020.7
20181018235048 68 39 11.0 16.0 0.00 0.03 0.01 85 1020.7
20181018234545 68 22 11.0 16.0 0.00 0.03 0.01 85 1020.6
20181018234040 68 29 11.0 17.0 0.00 0.03 0.01 84 1020.7
20181018233540 68 33 11.0 17.0 0.00 0.03 0.01 84 1020.6
20181018233041 68 33 10.0 14.0 0.00 0.03 0.01 85 1020.5
20181018232540 68 13 10.0 14.0 0.00 0.03 0.01 85 1020.5
20181018232040 68 34 10.0 14.0 0.00 0.03 0.01 85 1020.5
20181018231536 68 37 9.0 13.0 0.00 0.03 0.01 85 1020.6
20181018231036 68 42 8.0 11.0 0.00 0.03 0.01 85 1020.6
20181018230536 68 44 8.0 11.0 0.00 0.03 0.01 85 1020.7
20181018230032 68 34 8.0 11.0 0.00 0.03 0.01 85 1020.7
20181018225531 68 42 7.0 10.0 0.00 0.03 0.01 85 1020.6
20181018225032 68 30 7.0 10.0 0.00 0.03 0.01 85 1020.6
20181018224532 68 28 8.0 12.0 0.00 0.03 0.01 85 1020.6
20181018224032 68 26 8.0 12.0 0.00 0.03 0.01 85 1020.6
20181018223532 68 30 9.0 12.0 0.00 0.03 0.01 85 1020.7
20181018223033 68 18 10.0 14.0 0.00 0.03 0.01 84 1020.6
20181018222529 68 30 8.0 14.0 0.00 0.03 0.01 84 1020.7
20181018222025 68 16 8.0 12.0 0.00 0.03 0.01 85 1020.6
20181018221524 68 30 9.0 12.0 0.00 0.03 0.01 84 1020.6
20181018221023 69 28 9.0 14.0 0.00 0.03 0.01 84 1020.6
20181018220523 69 27 9.0 14.0 0.00 0.03 0.01 84 1020.6
20181018220024 69 47 8.0 12.0 0.00 0.03 0.01 84 1020.7
20181018215524 69 34 9.0 13.0 0.00 0.03 0.01 84 1020.6
20181018215024 69 37 9.0 13.0 0.00 0.03 0.01 84 1020.6
20181018214527 69 24 9.0 13.0 0.00 0.03 0.01 84 1020.6
20181018214025 69 34 10.0 14.0 0.00 0.03 0.01 84 1020.7
20181018213525 69 42 11.0 14.0 0.00 0.03 0.01 84 1020.7
20181018213025 69 51 10.0 14.0 0.00 0.03 0.01 83 1020.8
20181018212527 69 27 10.0 14.0 0.00 0.03 0.01 83 1020.7
20181018212024 69 23 10.0 14.0 0.00 0.03 0.01 83 1020.6
20181018211523 69 37 9.0 13.0 0.00 0.03 0.01 83 1020.6
20181018211024 69 37 9.0 12.0 0.00 0.03 0.01 84 1020.7
20181018210524 69 43 9.0 12.0 0.00 0.03 0.01 85 1020.7
20181018210023 68 26 8.0 13.0 0.00 0.03 0.01 85 1020.7
20181018205523 68 24 8.0 13.0 0.00 0.03 0.01 84 1020.8
20181018205025 68 39 8.0 12.0 0.00 0.03 0.01 84 1020.7
20181018204524 68 36 9.0 12.0 0.00 0.03 0.01 84 1020.7
20181018204025 68 17 9.0 12.0 0.00 0.03 0.01 84 1020.7
20181018203523 68 18 10.0 14.0 0.00 0.03 0.01 84 1020.6
20181018203024 68 17 10.0 14.0 0.00 0.03 0.01 84 1020.6
20181018202524 68 12 11.0 14.0 0.00 0.03 0.01 84 1020.6
20181018202025 68 47 11.0 17.0 0.00 0.03 0.01 84 1020.5
20181018201523 68 11 10.0 17.0 0.00 0.03 0.01 84 1020.6
20181018201025 68 25 10.0 16.0 0.00 0.03 0.01 85 1020.5
20181018200524 68 39 11.0 16.0 0.00 0.03 0.01 85 1020.6
20181018200026 67 17 11.0 13.0 0.00 0.03 0.01 85 1020.6
20181018195523 67 24 11.0 14.0 0.00 0.03 0.01 85 1020.6
20181018195025 67 11 11.0 14.0 0.00 0.03 0.01 85 1020.7
20181018194521 67 42 10.0 14.0 0.00 0.03 0.01 85 1020.8
20181018194021 67 32 10.0 16.0 0.00 0.03 0.01 85 1020.8
20181018193519 67 24 11.0 16.0 0.00 0.03 0.01 85 1020.8
20181018193021 67 37 11.0 15.0 0.00 0.03 0.01 85 1020.9
20181018192516 66 17 12.0 15.0 0.00 0.03 0.01 86 1021.0
20181018192017 66 27 10.0 14.0 0.00 0.03 0.01 85 1021.0
20181018191516 67 28 10.0 16.0 0.00 0.03 0.01 85 1021.2
20181018191025 67 23 12.0 16.0 0.00 0.03 0.01 85 1021.3
20181018190512 66 28 11.0 17.0 0.00 0.03 0.01 86 1021.4
20181018190012 66 22 11.0 17.0 0.00 0.03 0.01 86 1021.5
20181018185512 66 33 11.0 16.0 0.00 0.03 0.01 86 1021.7
20181018185013 66 28 10.0 14.0 0.00 0.03 0.01 86 1021.8
20181018184512 66 45 10.0 14.0 0.00 0.03 0.01 86 1021.9
20181018184013 66 21 10.0 14.0 0.00 0.03 0.01 86 1022.0
20181018183509 65 25 10.0 13.0 0.00 0.03 0.01 86 1022.2
20181018183009 65 36 10.0 13.0 0.00 0.03 0.01 87 1022.4
20181018182509 65 31 10.0 13.0 0.00 0.03 0.01 87 1022.7
20181018182009 65 49 10.0 13.0 0.00 0.03 0.01 87 1022.8
20181018181508 64 32 9.0 13.0 0.00 0.03 0.01 87 1022.8
20181018181009 64 37 10.0 13.0 0.00 0.03 0.01 88 1022.9
20181018180508 64 30 10.0 14.0 0.00 0.03 0.01 88 1023.2
20181018180008 64 42 10.0 14.0 0.00 0.03 0.01 88 1023.3
20181018175506 63 37 10.0 14.0 0.00 0.03 0.01 88 1023.3
20181018175007 63 30 9.0 12.0 0.00 0.03 0.01 88 1023.3
20181018174507 63 41 10.0 15.0 0.00 0.03 0.01 89 1023.3
20181018174006 63 32 10.0 15.0 0.00 0.03 0.01 89 1023.3
20181018173506 62 27 10.0 14.0 0.00 0.03 0.01 89 1023.4
20181018173006 62 42 11.0 14.0 0.00 0.03 0.01 89 1023.6
20181018172506 62 36 11.0 15.0 0.00 0.03 0.01 88 1023.6
20181018172007 62 50 11.0 15.0 0.00 0.03 0.01 89 1023.7
20181018171506 62 48 11.0 15.0 0.00 0.03 0.01 89 1023.7
20181018171006 62 32 11.0 15.0 0.00 0.03 0.01 89 1023.7
20181018170507 61 33 12.0 16.0 0.00 0.03 0.01 89 1023.7
20181018170005 61 30 11.0 16.0 0.00 0.03 0.01 90 1023.7
20181018165505 61 42 9.0 16.0 0.00 0.03 0.01 90 1023.7
20181018165007 61 29 10.0 16.0 0.00 0.03 0.01 91 1023.7
20181018164505 60 37 12.0 16.0 0.00 0.03 0.01 90 1023.7
20181018164007 60 30 12.0 17.0 0.00 0.03 0.01 91 1023.6
20181018163505 60 26 11.0 17.0 0.00 0.03 0.01 91 1023.7
20181018163006 60 32 12.0 18.0 0.00 0.03 0.01 91 1023.8
20181018162507 59 22 12.0 18.0 0.00 0.03 0.01 91 1023.7
20181018162004 59 34 12.0 16.0 0.00 0.03 0.01 91 1023.6
20181018161506 59 25 12.0 17.0 0.00 0.03 0.01 91 1023.7
20181018161006 59 37 12.0 17.0 0.00 0.03 0.01 91 1023.7
20181018160507 59 30 12.0 17.0 0.00 0.03 0.01 91 1023.7
20181018160004 59 28 12.0 17.0 0.00 0.03 0.01 91 1023.8
20181018155504 59 35 12.0 18.0 0.00 0.03 0.01 91 1023.8
20181018155005 59 24 12.0 18.0 0.00 0.03 0.01 91 1023.9
20181018154505 59 29 11.0 17.0 0.00 0.03 0.01 91 1023.8
20181018154004 59 24 10.0 15.0 0.00 0.03 0.01 91 1024.0
20181018153505 59 46 10.0 15.0 0.00 0.03 0.01 91 1024.1
20181018153004 58 32 11.0 14.0 0.00 0.03 0.01 91 1023.9
20181018152504 58 51 11.0 15.0 0.00 0.03 0.01 91 1023.9
20181018152005 58 34 12.0 17.0 0.00 0.03 0.01 91 1024.0
20181018151505 58 32 12.0 17.0 0.00 0.03 0.01 91 1024.2
20181018151004 58 34 11.0 18.0 0.00 0.03 0.01 91 1024.2
20181018150504 58 32 11.0 18.0 0.00 0.03 0.01 91 1024.1
20181018145959 58 19 12.0 19.0 0.00 0.03 0.01 91 1023.8
20181018145500 58 22 13.0 19.0 0.00 0.03 0.01 91 1023.6
20181018144957 58 23 11.0 17.0 0.00 0.03 0.01 91 1023.6
20181018144456 58 25 12.0 17.0 0.00 0.03 0.01 91 1023.6
20181018143955 57 15 12.0 16.0 0.01 0.03 0.01 91 1023.6
20181018143456 57 13 12.0 15.0 0.01 0.03 0.01 91 1023.7
20181018142952 57 20 11.0 15.0 0.01 0.03 0.01 91 1023.7
20181018142452 57 32 11.0 15.0 0.01 0.03 0.01 91 1023.8
20181018141952 57 36 10.0 15.0 0.01 0.03 0.01 91 1023.7
20181018141453 57 30 11.0 16.0 0.01 0.03 0.01 91 1023.6
20181018140951 57 21 12.0 16.0 0.01 0.03 0.01 91 1023.4
20181018140453 57 23 11.0 14.0 0.01 0.03 0.01 91 1023.4
20181018135955 57 34 11.0 16.0 0.01 0.03 0.01 91 1023.4
20181018135450 57 30 13.0 19.0 0.01 0.03 0.01 91 1023.3
20181018134945 57 5 12.0 19.0 0.01 0.03 0.01 91 1023.1
20181018134445 57 13 11.0 17.0 0.01 0.03 0.01 91 1023.1
20181018133947 57 9 11.0 17.0 0.00 0.02 0.00 90 1023.0
20181018133444 57 24 11.0 16.0 0.00 0.02 0.00 90 1023.0
20181018132939 57 30 11.0 16.0 0.00 0.02 0.00 90 1023.1
20181018132440 57 16 11.0 16.0 0.00 0.02 0.00 89 1023.1
20181018131939 57 12 11.0 15.0 0.00 0.02 0.00 89 1023.1
20181018131441 57 13 11.0 15.0 0.00 0.02 0.00 89 1023.0
20181018130935 57 34 11.0 15.0 0.00 0.02 0.00 89 1023.1
20181018130437 57 13 9.0 15.0 0.00 0.02 0.00 89 1023.0
20181018125937 57 32 9.0 13.0 0.00 0.02 0.00 89 1023.0
20181018125436 57 26 9.0 13.0 0.00 0.02 0.00 89 1023.0
20181018124936 57 23 10.0 14.0 0.00 0.02 0.00 89 1022.9
20181018124431 57 14 10.0 15.0 0.00 0.02 0.00 89 1022.7
20181018123933 57 14 11.0 16.0 0.00 0.02 0.00 90 1022.5
20181018123428 57 13 11.0 16.0 0.00 0.02 0.00 90 1022.4
20181018122928 57 13 11.0 16.0 0.00 0.02 0.00 90 1022.3
20181018122429 57 5 11.0 16.0 0.00 0.02 0.00 90 1022.3
20181018121928 57 5 11.0 16.0 0.00 0.02 0.00 90 1022.4
20181018121428 57 5 11.0 16.0 0.00 0.02 0.00 90 1022.4
20181018120924 57 15 10.0 16.0 0.00 0.02 0.00 90 1022.5
20181018120423 57 22 11.0 18.0 0.00 0.02 0.00 90 1022.5
20181018115924 57 24 12.0 18.0 0.00 0.02 0.00 90 1022.6
20181018115425 57 5 11.0 16.0 0.00 0.02 0.00 90 1022.4
20181018114924 57 10 11.0 16.0 0.00 0.02 0.00 90 1022.4
20181018114425 57 5 10.0 15.0 0.00 0.02 0.00 90 1022.5
20181018113924 57 11 9.0 15.0 0.00 0.02 0.00 90 1022.6
20181018113425 57 15 9.0 15.0 0.00 0.02 0.00 90 1022.6
20181018112923 57 30 10.0 14.0 0.00 0.02 0.00 90 1022.6
20181018112420 57 15 11.0 16.0 0.00 0.02 0.00 89 1022.5
20181018111921 57 5 10.0 16.0 0.00 0.02 0.00 89 1022.5
20181018111417 57 23 10.0 13.0 0.00 0.02 0.00 90 1022.5
20181018110910 57 22 9.0 13.0 0.00 0.02 0.00 90 1022.5
20181018110405 57 32 8.0 12.0 0.00 0.02 0.00 90 1022.5
20181018105902 57 24 8.0 12.0 0.00 0.02 0.00 90 1022.4
20181018105402 57 30 9.0 12.0 0.00 0.02 0.00 90 1022.3
20181018104903 57 38 9.0 12.0 0.00 0.02 0.00 90 1022.3
20181018104358 57 20 9.0 13.0 0.00 0.02 0.00 90 1022.2
20181018103859 57 5 9.0 13.0 0.00 0.02 0.00 90 1022.2
20181018103359 57 17 9.0 14.0 0.00 0.02 0.00 90 1022.2
20181018102859 57 32 10.0 14.0 0.00 0.02 0.00 90 1022.1
20181018102358 57 32 11.0 16.0 0.00 0.02 0.00 90 1022.2
20181018101859 57 22 11.0 16.0 0.00 0.02 0.00 90 1022.2
20181018101359 57 28 11.0 15.0 0.00 0.02 0.00 90 1022.1
20181018100859 57 22 11.0 16.0 0.00 0.02 0.00 90 1022.1
20181018100358 57 31 11.0 16.0 0.00 0.02 0.00 90 1022.1
20181018095857 57 26 11.0 15.0 0.00 0.02 0.00 90 1022.2
20181018095356 57 5 11.0 15.0 0.00 0.02 0.00 90 1022.2
20181018094857 57 21 11.0 15.0 0.00 0.02 0.00 90 1022.1
20181018094356 57 20 9.0 15.0 0.00 0.02 0.00 90 1022.1
20181018093857 57 5 10.0 16.0 0.00 0.02 0.00 90 1022.3
20181018093355 57 30 11.0 16.0 0.00 0.02 0.00 90 1022.3
20181018092854 57 30 11.0 17.0 0.00 0.02 0.00 90 1022.1
20181018092354 57 338 11.0 17.0 0.00 0.02 0.00 90 1022.1
20181018091854 57 34 11.0 17.0 0.00 0.02 0.00 90 1022.1
20181018091355 57 30 11.0 17.0 0.00 0.02 0.00 90 1022.1
20181018090854 57 26 11.0 17.0 0.00 0.02 0.00 91 1022.1
20181018090354 57 15 11.0 15.0 0.00 0.02 0.00 91 1022.0
20181018085854 57 21 11.0 14.0 0.00 0.02 0.00 91 1022.1
20181018085353 57 25 10.0 14.0 0.00 0.02 0.00 91 1022.1
20181018084854 57 17 11.0 16.0 0.00 0.02 0.00 91 1022.2
20181018084355 57 14 11.0 16.0 0.00 0.02 0.00 91 1022.2
20181018083856 57 355 11.0 15.0 0.00 0.02 0.00 91 1022.2
20181018083353 57 0 10.0 15.0 0.00 0.02 0.00 92 1022.3
20181018082854 57 11 9.0 13.0 0.00 0.02 0.00 92 1022.4
20181018082356 57 0 9.0 13.0 0.00 0.02 0.00 92 1022.4
20181018081855 57 355 8.0 11.0 0.00 0.02 0.00 92 1022.5
20181018081354 57 17 9.0 13.0 0.00 0.02 0.00 91 1022.6
20181018080854 57 19 10.0 13.0 0.00 0.02 0.00 92 1022.8
20181018080354 57 25 9.0 13.0 0.00 0.02 0.00 92 1022.8
20181018075854 57 24 9.0 15.0 0.00 0.02 0.00 92 1022.9
20181018075354 57 19 10.0 17.0 0.00 0.02 0.00 92 1022.9
20181018074854 57 16 11.0 17.0 0.00 0.02 0.00 92 1022.9
20181018074355 57 30 10.0 17.0 0.00 0.02 0.00 92 1022.8
20181018073854 57 21 10.0 16.0 0.00 0.02 0.00 92 1023.0
20181018073354 57 30 11.0 16.0 0.00 0.02 0.00 92 1023.1
20181018072854 57 32 11.0 18.0 0.00 0.02 0.00 92 1023.2
20181018072352 57 26 11.0 18.0 0.00 0.02 0.00 92 1023.1
20181018071852 57 26 10.0 16.0 0.00 0.02 0.00 92 1023.1
20181018071353 57 27 9.0 16.0 0.00 0.02 0.00 92 1023.2
20181018070855 57 31 9.0 13.0 0.00 0.02 0.00 92 1023.3
20181018070353 57 29 10.0 17.0 0.00 0.02 0.00 92 1023.3
20181018065851 57 45 12.0 17.0 0.00 0.02 0.00 92 1023.3
20181018065352 57 58 11.0 17.0 0.00 0.02 0.00 92 1023.3
20181018064853 57 22 12.0 18.0 0.00 0.02 0.00 93 1023.2
20181018064353 57 16 12.0 18.0 0.00 0.02 0.00 92 1023.1
20181018063852 57 5 11.0 17.0 0.00 0.02 0.00 93 1023.0
20181018063352 57 22 12.0 20.0 0.00 0.02 0.00 93 1023.0
20181018062853 57 21 13.0 20.0 0.00 0.02 0.00 93 1022.9
20181018062354 57 5 13.0 18.0 0.00 0.02 0.00 93 1023.1
20181018061849 57 17 12.0 18.0 0.00 0.02 0.00 92 1023.0
20181018061349 57 20 10.0 18.0 0.00 0.02 0.00 92 1023.1
20181018060848 58 10 11.0 17.0 0.00 0.02 0.00 92 1023.1
20181018060344 58 19 12.0 18.0 0.00 0.02 0.00 92 1023.1
20181018055844 58 9 11.0 18.0 0.00 0.02 0.00 92 1023.0
20181018055344 58 22 12.0 19.0 0.00 0.02 0.00 92 1023.2
20181018054845 58 34 14.0 20.0 0.00 0.02 0.00 92 1023.2
20181018054344 58 22 13.0 20.0 0.00 0.02 0.00 92 1023.1
20181018053841 58 11 11.0 17.0 0.00 0.02 0.00 92 1023.2
20181018053339 58 28 12.0 18.0 0.00 0.02 0.00 92 1023.3
20181018052838 58 26 10.0 18.0 0.00 0.02 0.00 92 1023.5
20181018052337 58 28 10.0 17.0 0.00 0.02 0.00 92 1023.5
20181018051841 58 24 10.0 16.0 0.00 0.02 0.00 92 1023.5
20181018051335 58 22 12.0 18.0 0.00 0.02 0.00 92 1023.6
20181018050835 58 23 12.0 18.0 0.00 0.02 0.00 92 1023.6
20181018050333 58 26 12.0 17.0 0.00 0.02 0.00 92 1023.6
20181018045834 58 24 12.0 17.0 0.00 0.02 0.02 92 1023.6
20181018045334 58 17 12.0 17.0 0.00 0.02 0.02 92 1023.5
20181018044833 58 17 11.0 15.0 0.00 0.02 0.02 92 1023.5
20181018044330 58 22 11.0 18.0 0.00 0.02 0.02 92 1023.7
20181018043831 58 34 11.0 18.0 0.00 0.02 0.02 92 1023.7
20181018043330 58 9 11.0 16.0 0.00 0.02 0.02 92 1023.6
20181018042836 58 22 10.0 16.0 0.01 0.02 0.02 92 1023.5
20181018042331 58 9 10.0 15.0 0.01 0.02 0.02 92 1023.6
20181018041830 58 5 10.0 15.0 0.01 0.02 0.02 92 1023.6
20181018041330 58 5 10.0 15.0 0.02 0.02 0.02 92 1023.6
20181018040828 58 20 10.0 16.0 0.02 0.02 0.02 92 1023.7
20181018040328 58 16 11.0 16.0 0.02 0.02 0.02 92 1023.8
20181018035828 58 15 12.0 17.0 0.02 0.02 0.02 92 1023.7
20181018035329 58 20 13.0 18.0 0.02 0.02 0.02 92 1023.8
20181018034828 58 9 13.0 18.0 0.02 0.02 0.02 92 1023.5
20181018034329 59 9 12.0 16.0 0.02 0.02 0.02 92 1023.5
20181018033829 59 20 11.0 16.0 0.02 0.02 0.02 92 1023.6
20181018033329 59 19 11.0 18.0 0.02 0.02 0.02 92 1023.6
20181018032828 59 15 11.0 18.0 0.01 0.01 0.01 92 1023.8
20181018032328 59 27 12.0 18.0 0.01 0.01 0.01 92 1023.9
20181018031829 59 41 12.0 18.0 0.01 0.01 0.01 91 1023.9
20181018031330 59 33 12.0 18.0 0.00 0.00 0.00 91 1023.8
20181018030820 59 33 13.0 18.0 0.00 0.00 0.00 91 1023.8
20181018030320 59 19 14.0 18.0 0.00 0.00 0.00 91 1023.8
20181018025820 59 35 13.0 20.0 0.00 0.00 0.00 91 1023.7
20181018025321 59 14 14.0 21.0 0.00 0.00 0.00 91 1023.5
20181018024821 59 355 13.0 21.0 0.00 0.00 0.00 91 1023.5
20181018024320 60 0 12.0 19.0 0.00 0.00 0.00 92 1023.4
20181018023821 60 20 13.0 19.0 0.00 0.00 0.00 92 1023.3
20181018023321 60 21 13.0 19.0 0.00 0.00 0.00 92 1023.4
20181018022821 60 23 11.0 19.0 0.00 0.00 0.00 92 1023.4
20181018022325 60 16 13.0 19.0 0.00 0.00 0.00 92 1023.3
20181018021818 60 36 14.0 21.0 0.00 0.00 0.00 92 1023.0
20181018021319 60 20 13.0 21.0 0.00 0.00 0.00 92 1022.9
20181018020820 60 0 11.0 18.0 0.00 0.00 0.00 92 1022.7
20181018020316 60 14 11.0 18.0 0.00 0.00 0.00 91 1022.9
20181018015816 60 14 14.0 18.0 0.00 0.00 0.00 91 1023.0
20181018015316 60 15 13.0 18.0 0.00 0.00 0.00 91 1023.1
20181018014816 60 17 12.0 18.0 0.00 0.00 0.00 91 1022.9
20181018014315 60 15 11.0 18.0 0.00 0.00 0.00 91 1022.8
20181018013815 60 24 13.0 21.0 0.00 0.00 0.00 91 1022.7
20181018013310 60 28 14.0 22.0 0.00 0.00 0.00 91 1022.7
20181018012811 60 9 12.0 18.0 0.00 0.00 0.00 91 1022.7
20181018012312 60 14 12.0 16.0 0.00 0.00 0.00 91 1022.7
20181018011812 60 26 12.0 18.0 0.00 0.00 0.00 91 1022.9
20181018011309 60 12 11.0 18.0 0.00 0.00 0.00 91 1022.9
20181018010809 60 32 11.0 15.0 0.00 0.00 0.00 91 1022.7
20181018010309 60 11 11.0 15.0 0.00 0.00 0.00 91 1022.6
20181018005810 60 16 11.0 15.0 0.00 0.00 0.00 91 1022.6
20181018005309 60 23 11.0 16.0 0.00 0.00 0.00 91 1022.6
20181018004808 60 14 11.0 17.0 0.00 0.00 0.00 91 1022.6
20181018004309 61 19 13.0 18.0 0.00 0.00 0.00 90 1022.5
20181018003810 61 5 14.0 19.0 0.00 0.00 0.00 90 1022.5